Time,TemperatureF,DewpointF,PressureIn,WindDirection,WindDirectionDegrees,WindSpeedMPH,WindSpeedGustMPH,Humidity,HourlyPrecipIn,Conditions,Clouds,dailyrainin,SoftwareType,DateUTC
2013-06-09 00:05:00,60.9,49.5,29.97,WNW,294,0.0,0.0,66,0.00,,,0.00,Wunderground v.1.15,2013-06-09 04:05:00,
2013-06-09 00:15:00,60.4,49.8,29.97,WNW,294,0.0,0.0,68,0.00,,,0.00,Wunderground v.1.15,2013-06-09 04:15:00,
2013-06-09 00:25:00,59.8,49.6,29.97,WNW,294,0.0,0.0,69,0.00,,,0.00,Wunderground v.1.15,2013-06-09 04:25:00,
2013-06-09 00:35:00,59.6,50.6,29.97,WNW,294,0.0,0.0,72,0.00,,,0.00,Wunderground v.1.15,2013-06-09 04:35:00,
2013-06-09 00:45:00,59.6,50.6,29.97,WNW,294,0.0,0.0,72,0.00,,,0.00,Wunderground v.1.15,2013-06-09 04:45:00,
2013-06-09 00:55:00,59.6,51.3,29.98,WNW,294,0.0,0.0,74,0.00,,,0.00,Wunderground v.1.15,2013-06-09 04:55:00,
2013-06-09 01:05:00,60.2,51.9,29.98,WNW,294,0.0,0.0,74,0.00,,,0.00,Wunderground v.1.15,2013-06-09 05:05:00,
2013-06-09 01:15:00,60.5,51.8,29.98,WNW,294,0.0,0.0,73,0.00,,,0.00,Wunderground v.1.15,2013-06-09 05:15:00,
2013-06-09 01:25:00,60.5,51.8,29.98,WNW,294,0.0,0.0,73,0.00,,,0.00,Wunderground v.1.15,2013-06-09 05:25:00,
2013-06-09 01:35:00,60.4,51.7,29.98,WNW,294,0.0,0.0,73,0.00,,,0.00,Wunderground v.1.15,2013-06-09 05:35:00,
2013-06-09 01:45:00,60.1,52.1,29.98,WNW,294,1.0,2.0,75,0.00,,,0.00,Wunderground v.1.15,2013-06-09 05:45:00,
2013-06-09 01:55:00,59.6,52.7,29.98,WNW,294,1.0,1.0,78,0.00,,,0.00,Wunderground v.1.15,2013-06-09 05:55:00,
2013-06-09 02:05:00,59.6,53.4,29.98,WNW,294,1.0,1.0,80,0.00,,,0.00,Wunderground v.1.15,2013-06-09 06:05:00,
2013-06-09 02:15:00,59.9,53.7,29.98,WNW,294,1.0,2.0,80,0.00,,,0.00,Wunderground v.1.15,2013-06-09 06:15:00,
2013-06-09 02:25:00,59.8,53.6,29.98,WNW,294,0.0,0.0,80,0.00,,,0.00,Wunderground v.1.15,2013-06-09 06:25:00,
2013-06-09 02:35:00,59.6,53.8,29.98,WNW,294,0.0,0.0,81,0.00,,,0.00,Wunderground v.1.15,2013-06-09 06:35:00,
2013-06-09 02:45:00,59.5,54.0,29.98,WNW,296,0.0,0.0,82,0.00,,,0.00,Wunderground v.1.15,2013-06-09 06:45:00,
2013-06-09 02:55:00,59.6,54.1,29.98,WNW,296,1.0,1.0,82,0.00,,,0.00,Wunderground v.1.15,2013-06-09 06:55:00,
2013-06-09 03:05:00,59.8,54.3,29.98,WNW,297,1.0,1.0,82,0.00,,,0.00,Wunderground v.1.15,2013-06-09 07:05:00,
2013-06-09 03:15:00,59.6,54.1,29.98,WNW,298,1.0,1.0,82,0.00,,,0.00,Wunderground v.1.15,2013-06-09 07:15:00,
2013-06-09 03:25:00,59.5,54.3,29.98,WNW,298,0.0,0.0,83,0.00,,,0.00,Wunderground v.1.15,2013-06-09 07:25:00,
2013-06-09 03:35:00,59.3,54.1,29.98,WNW,298,0.0,0.0,83,0.00,,,0.00,Wunderground v.1.15,2013-06-09 07:35:00,
2013-06-09 03:45:00,59.0,54.2,29.97,WNW,298,0.0,0.0,84,0.00,,,0.00,Wunderground v.1.15,2013-06-09 07:45:00,
2013-06-09 03:55:00,59.0,54.2,29.97,WNW,298,0.0,0.0,84,0.00,,,0.00,Wunderground v.1.15,2013-06-09 07:55:00,
2013-06-09 04:05:00,58.7,53.9,29.97,WNW,298,0.0,4.0,84,0.00,,,0.00,Wunderground v.1.15,2013-06-09 08:05:00,
2013-06-09 04:15:00,58.6,54.1,29.97,WNW,298,0.0,0.0,85,0.00,,,0.00,Wunderground v.1.15,2013-06-09 08:15:00,
2013-06-09 04:25:00,58.4,54.2,29.97,WNW,298,0.0,0.0,86,0.00,,,0.00,Wunderground v.1.15,2013-06-09 08:25:00,
2013-06-09 04:35:00,58.3,54.1,29.97,WNW,298,0.0,0.0,86,0.00,,,0.00,Wunderground v.1.15,2013-06-09 08:35:00,
2013-06-09 04:45:00,58.1,54.2,29.97,WNW,298,0.0,0.0,87,0.00,,,0.00,Wunderground v.1.15,2013-06-09 08:45:00,
2013-06-09 04:55:00,58.1,54.2,29.97,WNW,298,1.0,1.0,87,0.00,,,0.00,Wunderground v.1.15,2013-06-09 08:55:00,
2013-06-09 05:05:00,58.0,54.2,29.97,WNW,299,0.0,0.0,87,0.00,,,0.00,Wunderground v.1.15,2013-06-09 09:05:00,
2013-06-09 05:15:00,57.8,54.0,29.97,WNW,299,0.0,0.0,87,0.00,,,0.00,Wunderground v.1.15,2013-06-09 09:15:00,
2013-06-09 05:25:00,57.6,53.8,29.97,WNW,299,0.0,0.0,87,0.00,,,0.00,Wunderground v.1.15,2013-06-09 09:25:00,
2013-06-09 05:35:00,57.3,53.8,29.97,WNW,299,0.0,0.0,88,0.00,,,0.00,Wunderground v.1.15,2013-06-09 09:35:00,
2013-06-09 05:45:00,57.5,54.0,29.97,WNW,299,0.0,0.0,88,0.00,,,0.00,Wunderground v.1.15,2013-06-09 09:45:00,
2013-06-09 05:55:00,57.5,54.0,29.97,WNW,299,0.0,0.0,88,0.00,,,0.00,Wunderground v.1.15,2013-06-09 09:55:00,
2013-06-09 06:05:00,57.5,54.0,29.97,WNW,299,0.0,0.0,88,0.00,,,0.00,Wunderground v.1.15,2013-06-09 10:05:00,
2013-06-09 06:15:00,58.0,54.5,29.98,WNW,299,0.0,0.0,88,0.00,,,0.00,Wunderground v.1.15,2013-06-09 10:15:00,
2013-06-09 06:25:00,58.3,54.8,29.98,WNW,299,0.0,0.0,88,0.00,,,0.00,Wunderground v.1.15,2013-06-09 10:25:00,
2013-06-09 06:35:00,58.6,54.7,29.98,WNW,300,1.0,3.0,87,0.00,,,0.00,Wunderground v.1.15,2013-06-09 10:35:00,
2013-06-09 06:45:00,59.0,55.1,29.98,NW,304,2.0,3.0,87,0.00,,,0.00,Wunderground v.1.15,2013-06-09 10:45:00,
2013-06-09 06:55:00,59.3,55.1,29.98,NW,304,1.0,1.0,86,0.00,,,0.00,Wunderground v.1.15,2013-06-09 10:55:00,
2013-06-09 07:05:00,59.8,55.3,29.98,NW,308,0.0,0.0,85,0.00,,,0.00,Wunderground v.1.15,2013-06-09 11:05:00,
2013-06-09 07:15:00,60.1,55.6,29.99,NW,308,0.0,0.0,85,0.00,,,0.00,Wunderground v.1.15,2013-06-09 11:15:00,
2013-06-09 07:25:00,60.4,55.5,29.99,NW,309,1.0,1.0,84,0.00,,,0.00,Wunderground v.1.15,2013-06-09 11:25:00,
2013-06-09 07:35:00,60.7,55.5,29.99,NW,313,2.0,2.0,83,0.00,,,0.00,Wunderground v.1.15,2013-06-09 11:35:00,
2013-06-09 07:45:00,60.9,55.7,29.98,NW,317,2.0,3.0,83,0.00,,,0.00,Wunderground v.1.15,2013-06-09 11:45:00,
2013-06-09 07:55:00,61.0,55.8,29.98,NNE,22,3.0,3.0,83,0.00,,,0.00,Wunderground v.1.15,2013-06-09 11:55:00,
2013-06-09 08:05:00,61.3,56.1,29.98,East,93,3.0,3.0,83,0.00,,,0.00,Wunderground v.1.15,2013-06-09 12:05:00,
2013-06-09 08:15:00,62.0,56.8,29.99,East,100,4.0,5.0,83,0.00,,,0.00,Wunderground v.1.15,2013-06-09 12:15:00,
2013-06-09 08:25:00,62.7,56.8,29.99,ESE,102,4.0,4.0,81,0.00,,,0.00,Wunderground v.1.15,2013-06-09 12:25:00,
2013-06-09 08:35:00,63.7,57.8,29.99,East,101,2.0,2.0,81,0.00,,,0.00,Wunderground v.1.15,2013-06-09 12:35:00,
2013-06-09 08:45:00,64.3,58.0,29.99,ESE,111,4.0,4.0,80,0.00,,,0.00,Wunderground v.1.15,2013-06-09 12:45:00,
2013-06-09 08:55:00,65.0,58.3,29.98,ESE,117,3.0,3.0,79,0.00,,,0.00,Wunderground v.1.15,2013-06-09 12:55:00,
2013-06-09 09:05:00,66.3,59.2,29.98,ESE,109,4.0,4.0,78,0.00,,,0.00,Wunderground v.1.15,2013-06-09 13:05:00,
2013-06-09 09:15:00,67.1,59.6,29.98,SE,129,5.0,7.0,77,0.00,,,0.00,Wunderground v.1.15,2013-06-09 13:15:00,
2013-06-09 09:25:00,67.8,60.0,29.97,SE,128,6.0,7.0,76,0.00,,,0.00,Wunderground v.1.15,2013-06-09 13:25:00,
2013-06-09 09:35:00,68.9,61.0,29.97,ESE,121,5.0,6.0,76,0.00,,,0.00,Wunderground v.1.15,2013-06-09 13:35:00,
2013-06-09 09:45:00,69.3,60.3,29.97,ESE,123,7.0,7.0,73,0.00,,,0.00,Wunderground v.1.15,2013-06-09 13:45:00,
2013-06-09 09:55:00,70.1,61.0,29.97,SE,125,9.0,9.0,73,0.00,,,0.00,Wunderground v.1.15,2013-06-09 13:55:00,
2013-06-09 10:05:00,70.6,61.1,29.97,SE,130,9.0,9.0,72,0.00,,,0.00,Wunderground v.1.15,2013-06-09 14:05:00,
2013-06-09 10:15:00,71.1,61.2,29.97,SE,143,11.0,12.0,71,0.00,,,0.00,Wunderground v.1.15,2013-06-09 14:15:00,
2013-06-09 10:25:00,72.0,62.1,29.97,ESE,120,11.0,12.0,71,0.00,,,0.00,Wunderground v.1.15,2013-06-09 14:25:00,
2013-06-09 10:35:00,72.7,62.3,29.97,SSE,156,9.0,10.0,70,0.00,,,0.00,Wunderground v.1.15,2013-06-09 14:35:00,
2013-06-09 10:45:00,73.0,62.2,29.97,SSE,161,10.0,10.0,69,0.00,,,0.00,Wunderground v.1.15,2013-06-09 14:45:00,
2013-06-09 10:55:00,73.2,61.6,29.96,SE,128,11.0,15.0,67,0.00,,,0.00,Wunderground v.1.15,2013-06-09 14:55:00,
2013-06-09 11:05:00,73.7,62.5,29.96,ESE,123,10.0,12.0,68,0.00,,,0.00,Wunderground v.1.15,2013-06-09 15:05:00,
2013-06-09 11:15:00,74.2,62.1,29.96,SSE,149,9.0,9.0,66,0.00,,,0.00,Wunderground v.1.15,2013-06-09 15:15:00,
2013-06-09 11:25:00,75.3,63.2,29.96,ESE,121,9.0,9.0,66,0.00,,,0.00,Wunderground v.1.15,2013-06-09 15:25:00,
2013-06-09 11:35:00,75.1,63.0,29.96,SE,142,11.0,12.0,66,0.00,,,0.00,Wunderground v.1.15,2013-06-09 15:35:00,
2013-06-09 11:45:00,75.6,63.4,29.96,SE,130,10.0,14.0,66,0.00,,,0.00,Wunderground v.1.15,2013-06-09 15:45:00,
2013-06-09 11:55:00,76.1,62.1,29.96,SSE,157,11.0,11.0,62,0.00,,,0.00,Wunderground v.1.15,2013-06-09 15:55:00,
2013-06-09 12:05:00,76.7,63.2,29.96,ESE,116,10.0,10.0,63,0.00,,,0.00,Wunderground v.1.15,2013-06-09 16:05:00,
2013-06-09 12:15:00,76.8,62.8,29.95,ESE,119,9.0,9.0,62,0.00,,,0.00,Wunderground v.1.15,2013-06-09 16:15:00,
2013-06-09 12:25:00,76.5,62.0,29.95,ESE,116,10.0,12.0,61,0.00,,,0.00,Wunderground v.1.15,2013-06-09 16:25:00,
2013-06-09 12:35:00,77.4,63.4,29.95,SSE,156,10.0,10.0,62,0.00,,,0.00,Wunderground v.1.15,2013-06-09 16:35:00,
2013-06-09 12:45:00,77.0,62.5,29.94,SE,127,9.0,13.0,61,0.00,,,0.00,Wunderground v.1.15,2013-06-09 16:45:00,
2013-06-09 12:55:00,76.7,63.6,29.94,SSE,166,9.0,9.0,64,0.00,,,0.00,Wunderground v.1.15,2013-06-09 16:55:00,
2013-06-09 13:05:00,76.5,62.0,29.94,SE,130,7.0,7.0,61,0.00,,,0.00,Wunderground v.1.15,2013-06-09 17:05:00,
2013-06-09 13:15:00,76.8,64.1,29.94,SE,143,8.0,8.0,65,0.00,,,0.00,Wunderground v.1.15,2013-06-09 17:15:00,
2013-06-09 13:25:00,77.2,63.2,29.93,SE,139,6.0,6.0,62,0.00,,,0.00,Wunderground v.1.15,2013-06-09 17:25:00,
2013-06-09 13:35:00,76.7,62.7,29.93,ESE,114,8.0,8.0,62,0.00,,,0.00,Wunderground v.1.15,2013-06-09 17:35:00,
2013-06-09 13:45:00,77.4,60.0,29.93,SSE,150,7.0,10.0,55,0.00,,,0.00,Wunderground v.1.15,2013-06-09 17:45:00,
2013-06-09 13:55:00,76.8,59.9,29.92,SSE,148,8.0,8.0,56,0.00,,,0.00,Wunderground v.1.15,2013-06-09 17:55:00,
2013-06-09 14:05:00,77.4,60.5,29.92,ESE,107,6.0,6.0,56,0.00,,,0.00,Wunderground v.1.15,2013-06-09 18:05:00,
2013-06-09 14:15:00,76.7,60.8,29.92,ESE,107,7.0,9.0,58,0.00,,,0.00,Wunderground v.1.15,2013-06-09 18:15:00,
2013-06-09 14:25:00,76.8,59.4,29.91,SE,138,10.0,10.0,55,0.00,,,0.00,Wunderground v.1.15,2013-06-09 18:25:00,
2013-06-09 14:35:00,77.4,61.0,29.91,SE,134,7.0,9.0,57,0.00,,,0.00,Wunderground v.1.15,2013-06-09 18:35:00,
2013-06-09 14:45:00,77.7,59.7,29.91,ESE,105,6.0,6.0,54,0.00,,,0.00,Wunderground v.1.15,2013-06-09 18:45:00,
2013-06-09 14:55:00,77.6,60.2,29.90,SE,128,6.0,6.0,55,0.00,,,0.00,Wunderground v.1.15,2013-06-09 18:55:00,
2013-06-09 15:05:00,78.6,62.6,29.90,ESE,121,9.0,16.0,58,0.00,,,0.00,Wunderground v.1.15,2013-06-09 19:05:00,
2013-06-09 15:15:00,78.6,60.6,29.90,ESE,103,9.0,9.0,54,0.00,,,0.00,Wunderground v.1.15,2013-06-09 19:15:00,
2013-06-09 15:25:00,78.8,60.7,29.89,East,96,9.0,9.0,54,0.00,,,0.00,Wunderground v.1.15,2013-06-09 19:25:00,
2013-06-09 15:35:00,79.0,59.3,29.89,ESE,107,10.0,11.0,51,0.00,,,0.00,Wunderground v.1.15,2013-06-09 19:35:00,
2013-06-09 15:45:00,78.6,61.1,29.89,ESE,109,9.0,9.0,55,0.00,,,0.00,Wunderground v.1.15,2013-06-09 19:45:00,
2013-06-09 15:55:00,78.5,61.0,29.88,ESE,116,10.0,11.0,55,0.00,,,0.00,Wunderground v.1.15,2013-06-09 19:55:00,
2013-06-09 16:05:00,78.6,61.6,29.88,SE,136,10.0,12.0,56,0.00,,,0.00,Wunderground v.1.15,2013-06-09 20:05:00,
2013-06-09 16:15:00,78.1,59.6,29.87,East,98,11.0,11.0,53,0.00,,,0.00,Wunderground v.1.15,2013-06-09 20:15:00,
2013-06-09 16:25:00,77.2,60.3,29.87,SE,128,10.0,12.0,56,0.00,,,0.00,Wunderground v.1.15,2013-06-09 20:25:00,
2013-06-09 16:35:00,76.8,60.4,29.87,ESE,115,9.0,9.0,57,0.00,,,0.00,Wunderground v.1.15,2013-06-09 20:35:00,
2013-06-09 16:45:00,77.2,60.8,29.86,ESE,112,9.0,9.0,57,0.00,,,0.00,Wunderground v.1.15,2013-06-09 20:45:00,
2013-06-09 16:55:00,78.6,61.1,29.85,ESE,114,8.0,14.0,55,0.00,,,0.00,Wunderground v.1.15,2013-06-09 20:55:00,
2013-06-09 17:05:00,77.7,61.3,29.85,ESE,102,11.0,14.0,57,0.00,,,0.00,Wunderground v.1.15,2013-06-09 21:05:00,
2013-06-09 17:15:00,77.0,61.1,29.85,ESE,114,11.0,11.0,58,0.00,,,0.00,Wunderground v.1.15,2013-06-09 21:15:00,
2013-06-09 17:25:00,76.5,61.6,29.85,East,94,9.0,9.0,60,0.00,,,0.00,Wunderground v.1.15,2013-06-09 21:25:00,
2013-06-09 17:35:00,76.8,60.9,29.85,ESE,113,8.0,15.0,58,0.00,,,0.00,Wunderground v.1.15,2013-06-09 21:35:00,
2013-06-09 17:45:00,76.5,61.6,29.85,ESE,116,10.0,11.0,60,0.00,,,0.00,Wunderground v.1.15,2013-06-09 21:45:00,
2013-06-09 17:55:00,76.3,61.9,29.85,ESE,107,9.0,9.0,61,0.00,,,0.00,Wunderground v.1.15,2013-06-09 21:55:00,
2013-06-09 18:05:00,76.0,60.6,29.85,ESE,106,9.0,15.0,59,0.00,,,0.00,Wunderground v.1.15,2013-06-09 22:05:00,
2013-06-09 18:15:00,76.0,60.6,29.85,East,96,10.0,10.0,59,0.00,,,0.00,Wunderground v.1.15,2013-06-09 22:15:00,
2013-06-09 18:25:00,76.0,60.2,29.85,East,95,8.0,14.0,58,0.00,,,0.00,Wunderground v.1.15,2013-06-09 22:25:00,
2013-06-09 18:35:00,75.4,59.6,29.85,ESE,117,12.0,12.0,58,0.00,,,0.00,Wunderground v.1.15,2013-06-09 22:35:00,
2013-06-09 18:45:00,75.1,59.3,29.84,ESE,118,10.0,10.0,58,0.00,,,0.00,Wunderground v.1.15,2013-06-09 22:45:00,
2013-06-09 18:55:00,73.9,60.5,29.85,ESE,112,9.0,9.0,63,0.00,,,0.00,Wunderground v.1.15,2013-06-09 22:55:00,
2013-06-09 19:05:00,72.8,61.2,29.85,ESE,104,7.0,7.0,67,0.00,,,0.00,Wunderground v.1.15,2013-06-09 23:05:00,
2013-06-09 19:15:00,72.1,61.4,29.85,ENE,77,3.0,3.0,69,0.00,,,0.00,Wunderground v.1.15,2013-06-09 23:15:00,
2013-06-09 19:25:00,71.8,62.7,29.85,ENE,78,0.0,0.0,73,0.08,,,0.02,Wunderground v.1.15,2013-06-09 23:25:00,
2013-06-09 19:35:00,69.6,65.2,29.85,West,275,3.0,3.0,86,1.29,,,0.10,Wunderground v.1.15,2013-06-09 23:35:00,
2013-06-09 19:45:00,66.8,64.1,29.86,WNW,302,12.0,12.0,91,1.26,,,0.60,Wunderground v.1.15,2013-06-09 23:45:00,
2013-06-09 19:55:00,66.3,64.2,29.85,NW,311,1.0,3.0,93,0.11,,,0.65,Wunderground v.1.15,2013-06-09 23:55:00,
2013-06-09 20:05:00,66.3,64.5,29.85,NNE,24,2.0,2.0,94,0.04,,,0.65,Wunderground v.1.15,2013-06-10 00:05:00,
2013-06-09 20:15:00,66.1,64.6,29.85,NE,44,2.0,2.0,95,0.00,,,0.65,Wunderground v.1.15,2013-06-10 00:15:00,
2013-06-09 20:25:00,66.1,64.6,29.84,NE,44,1.0,1.0,95,0.00,,,0.65,Wunderground v.1.15,2013-06-10 00:25:00,
2013-06-09 20:35:00,66.3,64.8,29.84,NE,45,0.0,0.0,95,0.00,,,0.65,Wunderground v.1.15,2013-06-10 00:35:00,
2013-06-09 20:45:00,66.1,64.6,29.84,NE,45,0.0,3.0,95,0.00,,,0.65,Wunderground v.1.15,2013-06-10 00:45:00,
2013-06-09 20:55:00,66.1,64.6,29.84,NE,46,0.0,0.0,95,0.00,,,0.65,Wunderground v.1.15,2013-06-10 00:55:00,
2013-06-09 21:05:00,66.1,64.6,29.84,NE,46,0.0,1.0,95,0.00,,,0.65,Wunderground v.1.15,2013-06-10 01:05:00,
2013-06-09 21:15:00,65.8,64.3,29.84,ENE,57,1.0,4.0,95,0.00,,,0.65,Wunderground v.1.15,2013-06-10 01:15:00,
2013-06-09 21:25:00,66.0,63.6,29.84,ESE,104,2.0,2.0,92,0.00,,,0.65,Wunderground v.1.15,2013-06-10 01:25:00,
2013-06-09 21:35:00,66.4,63.1,29.84,East,99,4.0,7.0,89,0.00,,,0.65,Wunderground v.1.15,2013-06-10 01:35:00,
2013-06-09 21:45:00,66.8,62.1,29.83,East,97,6.0,6.0,85,0.00,,,0.65,Wunderground v.1.15,2013-06-10 01:45:00,
2013-06-09 21:55:00,66.9,61.6,29.83,East,101,5.0,5.0,83,0.00,,,0.65,Wunderground v.1.15,2013-06-10 01:55:00,
2013-06-09 22:05:00,66.9,60.9,29.83,East,94,4.0,4.0,81,0.00,,,0.65,Wunderground v.1.15,2013-06-10 02:05:00,
2013-06-09 22:15:00,67.4,60.3,29.83,East,92,5.0,7.0,78,0.00,,,0.65,Wunderground v.1.15,2013-06-10 02:15:00,
2013-06-09 22:25:00,67.8,60.3,29.82,East,97,4.0,4.0,77,0.00,,,0.65,Wunderground v.1.15,2013-06-10 02:25:00,
2013-06-09 22:35:00,67.9,60.1,29.82,East,101,4.0,4.0,76,0.00,,,0.65,Wunderground v.1.15,2013-06-10 02:35:00,
2013-06-09 22:45:00,68.1,59.9,29.83,East,92,5.0,6.0,75,0.00,,,0.65,Wunderground v.1.15,2013-06-10 02:45:00,
2013-06-09 22:55:00,68.3,59.3,29.83,East,98,5.0,5.0,73,0.00,,,0.65,Wunderground v.1.15,2013-06-10 02:55:00,
2013-06-09 23:05:00,68.3,58.9,29.83,ESE,113,5.0,9.0,72,0.00,,,0.65,Wunderground v.1.15,2013-06-10 03:05:00,
2013-06-09 23:15:00,68.3,58.9,29.82,East,87,6.0,8.0,72,0.00,,,0.65,Wunderground v.1.15,2013-06-10 03:15:00,
2013-06-09 23:25:00,68.3,58.5,29.82,ENE,76,6.0,6.0,71,0.00,,,0.65,Wunderground v.1.15,2013-06-10 03:25:00,
2013-06-09 23:35:00,68.3,58.9,29.82,East,92,6.0,8.0,72,0.00,,,0.65,Wunderground v.1.15,2013-06-10 03:35:00,
2013-06-09 23:45:00,68.1,58.7,29.83,East,101,6.0,6.0,72,0.00,,,0.65,Wunderground v.1.15,2013-06-10 03:45:00,
2013-06-09 23:55:00,67.9,58.5,29.82,East,100,6.0,6.0,72,0.00,,,0.65,Wunderground v.1.15,2013-06-10 03:55:00,